Theta_e
330 331 333 335 336 335 334 335 336 337 337 338 338 338 337 335 334 335 335 335 336 336 335 334 334 334 334 335 335 335 335 334 334 333 334 334 335 335 335 336 336 336
331 333 335 336 335 334 333 335 337 338 338 338 338 338 339 337 337 336 336 336 337 336 335 334 334 334 334 335 335 335 336 335 334 334 334 335 335 336 336 336 336 337
333 334 335 335 334 333 334 336 338 339 338 337 337 338 339 339 338 338 337 337 337 336 335 334 334 335 335 335 336 336 336 336 335 334 334 335 336 336 336 336 336 337
333 333 334 333 333 334 335 338 339 339 337 336 335 337 339 340 339 339 338 337 337 337 336 335 335 335 335 335 336 336 336 336 336 336 335 336 336 336 336 336 336 337
334 334 334 334 334 336 337 339 339 338 337 336 336 336 338 340 339 339 339 338 338 337 338 337 336 335 335 335 335 335 336 336 336 336 336 337 337 337 336 336 337 337
335 335 335 335 336 337 339 339 339 339 337 337 336 336 337 339 340 340 339 338 337 337 338 338 337 337 336 336 336 336 336 336 336 336 337 337 336 336 336 337 337 336
335 335 335 336 337 339 339 339 339 339 338 338 338 337 337 338 340 340 339 339 337 336 337 337 337 337 337 336 337 336 337 337 337 337 337 337 336 336 336 337 337 336
335 336 337 338 339 339 339 339 339 339 338 338 338 337 338 338 339 339 339 339 338 337 337 336 336 336 336 336 336 337 337 337 337 337 337 337 336 335 335 336 336 335
336 337 338 339 339 339 339 338 338 338 338 338 338 338 338 338 338 338 338 338 338 338 336 335 335 335 336 336 337 337 337 337 337 337 336 334 333 333 333 333 333 332
338 338 339 340 340 339 340 339 338 338 339 338 338 338 338 339 338 338 337 337 337 337 336 334 334 334 335 336 337 337 336 336 336 336 335 334 333 333 332 332 333 332
338 339 339 340 340 340 340 340 339 339 339 338 338 338 338 338 338 338 337 336 336 335 334 333 333 334 335 336 336 336 335 335 336 335 335 335 335 334 333 333 333 333
339 340 340 340 340 340 340 340 340 339 339 339 339 338 338 338 337 337 337 336 335 334 333 332 332 334 335 335 336 336 336 336 335 334 334 335 335 335 335 334 333 333
340 340 340 340 340 340 340 340 340 339 339 338 339 338 337 337 336 336 336 336 335 332 331 331 332 333 334 334 335 336 336 336 335 333 333 334 335 335 335 334 333 332
340 340 340 340 340 339 339 340 340 339 339 338 338 338 337 336 336 336 336 336 335 332 330 330 330 331 332 332 334 335 335 336 335 333 333 334 335 334 333 333 331 329
339 339 339 340 339 338 339 339 339 340 339 337 337 337 337 336 336 337 337 336 335 332 328 328 328 329 330 331 332 334 334 334 334 333 333 333 333 333 332 331 330 328
337 337 337 337 338 338 338 338 339 339 339 338 337 337 337 336 336 336 336 336 335 332 328 327 327 327 330 331 331 333 333 333 333 333 333 332 331 331 331 330 329 328
335 335 335 335 336 336 337 337 338 338 338 338 337 337 337 336 336 337 336 336 335 332 328 326 326 327 331 332 332 332 333 333 332 331 331 331 331 331 331 330 330 328
334 334 334 335 335 335 336 337 337 337 337 337 337 337 337 337 337 337 336 336 335 332 328 326 326 327 330 332 332 332 333 333 332 332 331 330 331 331 331 331 330 328
333 333 333 334 334 335 335 336 337 336 337 337 337 337 337 337 337 337 336 336 335 332 328 326 326 327 329 332 333 332 332 333 332 332 331 330 330 330 330 330 330 328
331 332 333 333 334 334 335 336 336 336 336 336 336 336 336 336 337 336 336 336 334 332 328 326 326 327 329 332 333 333 333 332 332 331 331 331 330 329 329 329 329 328
330 331 332 333 333 334 335 335 335 335 336 336 336 336 336 335 335 335 336 335 334 331 328 327 326 327 329 332 333 333 332 331 330 330 330 330 329 329 328 328 328 328
330 330 331 331 332 333 333 334 335 335 335 336 335 335 335 335 334 334 334 334 333 330 328 328 327 327 329 331 332 332 331 329 329 329 329 329 329 328 328 328 327 327
329 329 330 331 331 332 333 334 334 334 335 335 335 335 334 334 334 334 334 334 332 330 328 328 327 328 329 331 332 332 331 329 329 328 328 329 329 328 328 327 327 327
327 328 329 330 331 331 332 333 333 334 334 334 334 334 334 333 335 335 334 333 332 330 328 328 328 329 330 331 333 332 330 329 328 328 328 328 328 328 328 327 327 327
326 326 327 328 330 330 331 332 332 332 333 333 333 333 333 333 334 333 333 332 331 329 328 328 329 330 331 331 332 331 330 329 328 327 327 327 327 327 327 327 327 326
325 326 327 328 328 329 330 331 331 331 332 332 332 333 333 332 331 330 330 329 328 328 328 328 329 330 331 331 331 331 330 329 328 327 327 326 326 326 326 326 326 326
Wind_Speed
26 26 26 25 23 22 21 20 19 17 16 14 13 11 10 9 10 11 11 12 12 12 11 12 13 13 12 12 11 12 11 11 10 10 9 9 9 8 8 8 8 7
27 26 26 25 24 23 21 20 18 17 15 13 13 13 11 10 10 10 10 11 12 12 11 12 12 13 13 13 12 11 11 10 10 10 10 10 9 9 10 9 8 7
27 26 26 25 25 23 21 19 17 15 13 14 15 14 13 12 11 11 10 10 11 11 12 12 12 13 13 13 13 12 11 10 10 10 10 11 10 10 10 9 8 8
27 27 27 26 25 22 20 18 16 16 17 19 19 15 12 13 13 12 11 11 11 12 12 13 13 13 13 14 13 13 12 10 10 10 11 11 10 10 10 8 9 8
27 27 26 25 24 22 19 18 19 20 21 21 19 15 14 14 14 14 12 12 12 12 13 13 14 14 13 14 14 14 13 12 11 11 11 11 11 11 10 10 10 9
27 26 25 24 23 21 19 20 22 22 20 20 19 17 16 15 15 15 14 13 13 13 13 13 13 13 14 15 15 15 14 13 12 12 12 11 11 12 11 11 11 10
26 26 24 23 22 20 19 21 22 21 19 19 18 18 18 16 16 16 16 15 14 14 14 14 14 14 14 15 16 17 16 15 14 13 13 13 13 14 14 13 12 12
26 25 24 23 21 19 19 21 22 21 20 19 18 18 18 18 18 18 17 17 17 16 16 15 16 16 16 16 16 16 16 16 14 14 15 15 15 14 14 13 12 11
25 24 24 23 21 21 21 21 21 21 21 20 19 19 18 19 19 19 19 19 18 18 17 17 16 16 16 16 16 16 16 15 15 15 15 14 12 11 11 11 11 11
25 24 24 24 22 22 23 22 21 21 21 20 20 20 20 20 20 20 20 20 20 19 19 18 17 16 16 16 16 16 15 14 13 14 14 13 12 11 11 11 11 11
25 25 25 24 23 24 24 22 21 21 21 20 20 20 20 20 20 21 21 21 20 20 19 19 17 16 17 16 15 14 14 14 14 15 15 15 14 13 12 12 11 11
25 25 25 25 24 24 24 23 22 21 20 20 19 19 19 20 21 22 22 21 20 19 19 18 17 17 17 16 14 13 14 16 17 16 14 14 14 14 13 13 13 13
26 26 26 25 24 24 24 23 22 21 20 20 19 19 19 20 20 21 20 20 19 18 18 17 16 16 16 16 14 13 14 16 17 16 13 13 14 14 14 14 14 14
27 27 26 25 24 24 24 23 23 22 20 19 19 20 20 20 19 18 18 17 17 17 17 16 15 15 15 14 14 14 14 15 16 16 14 13 14 14 13 14 14 13
28 27 26 25 24 24 24 24 24 23 21 19 19 20 21 20 19 18 18 17 17 17 16 15 15 16 16 15 14 15 15 14 15 15 15 14 14 14 13 13 13 13
26 26 25 25 25 25 25 25 24 24 23 21 21 21 21 21 20 20 19 19 18 18 17 16 16 16 18 17 14 14 14 14 15 16 16 16 15 14 14 14 14 13
24 24 24 24 25 25 25 25 26 25 25 24 24 23 23 22 22 21 21 20 20 19 19 19 18 18 18 17 14 14 15 15 15 15 16 16 17 17 17 17 16 16
22 23 23 24 24 25 25 26 26 26 26 26 25 25 24 24 24 23 22 21 21 21 20 21 20 19 18 17 15 15 16 17 16 15 15 16 17 19 19 19 18 18
22 22 23 24 25 25 25 25 26 26 27 26 26 25 25 24 25 25 24 23 22 22 21 21 21 19 18 17 17 17 17 17 16 15 15 15 17 19 20 20 20 20
22 22 24 24 24 24 25 25 26 26 26 26 25 25 24 25 25 26 26 25 24 22 21 21 20 19 18 18 18 18 18 18 17 17 17 18 18 18 19 20 21 21
22 23 23 23 23 23 24 25 26 26 25 25 24 24 24 25 25 26 26 26 25 23 22 21 21 20 19 19 18 19 19 20 20 20 20 21 20 19 19 20 21 22
21 22 22 22 22 22 23 24 26 25 24 24 23 23 23 23 24 25 25 25 24 23 22 21 21 21 21 20 20 20 20 21 22 22 22 22 21 21 20 21 22 23
19 20 21 21 22 22 23 25 26 26 25 23 23 23 22 22 23 24 24 24 23 22 21 20 19 19 20 20 20 21 21 22 23 24 23 23 23 22 21 21 22 23
17 18 19 21 22 24 25 26 27 26 25 23 22 22 21 21 22 23 24 24 23 21 19 18 17 17 18 19 20 21 21 21 22 23 24 24 24 24 23 22 22 23
16 17 19 21 23 24 25 26 27 26 24 22 21 21 20 19 20 22 24 24 23 21 19 18 17 16 16 18 19 19 20 20 20 21 23 24 25 25 24 23 23 23
18 17 19 21 23 24 25 25 25 24 23 21 20 20 19 19 19 20 22 23 22 21 20 19 18 16 16 17 17 17 18 19 20 21 23 25 26 26 25 25 25 25
Wind_Direction
233 235 238 240 243 248 251 253 255 256 257 260 264 268 262 255 253 251 248 245 244 244 242 239 236 235 232 230 232 232 232 234 236 236 235 234 235 237 237 236 236 239
233 235 236 239 242 248 251 252 254 256 262 267 269 269 264 257 251 250 249 246 244 242 237 231 229 230 232 234 236 237 237 238 236 235 233 233 236 241 241 241 243 247
232 234 235 238 242 246 249 249 250 253 255 249 241 240 248 254 253 249 245 240 239 237 232 229 230 232 232 233 237 239 240 240 238 236 237 239 242 247 249 246 247 253
233 234 235 238 240 244 246 244 244 242 237 233 228 226 235 248 251 249 244 240 236 233 229 229 230 232 233 233 235 237 237 238 238 238 241 244 247 253 256 253 251 252
234 235 236 237 237 239 239 237 240 240 235 234 235 231 229 235 242 244 242 240 240 240 237 234 233 234 235 235 236 236 235 234 236 238 242 246 249 253 253 251 247 245
235 236 236 236 235 234 232 234 239 241 239 238 239 237 235 235 239 242 242 240 241 245 246 244 240 238 237 236 234 235 235 235 238 240 241 244 247 247 245 243 240 237
234 235 234 234 232 226 227 235 240 241 242 242 242 243 243 242 243 245 245 242 241 244 246 249 248 243 240 236 232 232 234 239 241 240 241 243 244 242 240 240 239 236
232 233 232 232 225 216 222 235 238 239 241 242 242 242 242 244 245 246 245 243 241 241 243 247 247 243 240 238 237 235 235 237 240 240 240 240 242 243 243 243 246 248
231 231 230 230 219 209 220 232 234 236 239 240 240 241 239 240 241 243 244 242 240 241 243 246 242 236 237 239 240 239 237 237 238 236 235 237 243 249 250 249 254 260
228 229 229 228 216 210 222 232 233 235 239 240 242 241 240 240 240 241 242 241 240 240 243 243 236 227 230 234 236 240 240 238 233 231 234 239 242 242 241 243 249 254
227 227 227 227 217 213 224 234 234 236 239 242 243 241 239 241 243 242 241 242 243 243 243 242 237 229 226 226 229 235 235 232 228 229 237 243 242 239 236 238 244 249
226 226 227 227 219 215 224 233 235 236 239 242 243 241 240 242 244 245 245 246 249 249 245 243 242 238 232 224 220 223 230 234 232 229 234 241 242 242 240 240 245 248
227 228 229 229 222 217 224 232 235 237 241 242 242 243 244 246 246 245 246 248 253 252 246 243 245 243 233 220 215 220 230 239 238 231 229 233 236 239 239 243 248 247
230 230 231 231 225 219 223 230 234 239 243 244 244 244 246 248 248 247 248 252 253 250 246 245 247 245 233 219 218 225 231 238 240 234 229 227 230 235 239 246 249 245
230 230 230 230 225 218 219 226 231 236 242 244 246 248 248 249 249 250 254 256 255 252 249 248 249 247 239 231 228 228 228 232 234 232 233 236 237 237 239 244 245 242
230 230 229 228 225 218 217 222 226 229 234 238 242 248 251 252 252 252 255 256 257 257 255 254 252 246 240 238 236 233 233 234 234 235 240 243 243 239 237 240 243 242
229 229 228 228 227 222 218 218 221 223 226 230 235 241 247 252 254 255 256 257 258 257 257 257 255 247 239 236 234 236 240 241 242 246 248 247 246 246 244 244 244 242
229 228 228 228 227 225 221 217 217 218 221 224 229 235 241 245 250 253 255 257 256 255 256 257 258 253 244 237 233 232 235 239 245 252 253 248 248 250 249 245 240 237
231 228 228 229 227 226 223 218 214 215 219 223 228 232 236 240 245 249 252 254 252 252 254 257 259 257 250 245 242 237 235 239 247 251 246 236 238 244 245 241 236 231
233 230 230 231 229 225 222 219 217 218 221 225 227 229 232 236 241 245 248 250 250 249 252 255 258 256 251 248 245 242 241 240 238 236 232 228 229 235 237 236 234 227
235 232 232 231 229 225 222 222 222 222 223 226 228 229 233 237 240 243 245 246 246 246 247 250 253 252 250 246 242 241 238 232 226 224 227 229 230 231 233 236 234 227
236 233 232 231 228 224 222 223 225 225 225 227 229 232 235 239 241 243 245 245 245 243 243 246 248 248 247 244 242 241 234 226 224 226 228 231 233 233 233 236 235 230
240 236 233 231 227 223 223 225 227 226 225 225 228 231 234 239 243 247 248 248 246 243 242 245 246 244 244 242 242 242 236 227 226 229 231 235 238 238 237 237 237 234
251 243 238 233 228 225 226 226 227 226 224 224 227 230 235 242 247 250 251 249 248 246 246 249 247 241 240 242 243 243 240 233 230 229 232 236 238 239 239 239 239 237
265 253 244 237 233 231 230 229 227 226 224 224 226 230 236 242 246 249 251 250 249 249 249 249 245 239 239 243 245 245 244 240 235 229 229 233 235 235 236 237 238 237
270 259 249 243 239 237 234 231 229 226 223 222 224 228 232 238 242 247 251 252 251 251 250 247 244 242 242 245 247 248 245 241 236 230 229 230 232 232 232 233 234 234